JASON DEB, 35414

Orbit data source: Space-Track

JASON DEB, 35414 is space debris in LEO originally from a launch on Fri, 07 Dec 2001 UTC launched from the Air Force Western Test Range (AFWTR). Debris objects in space refer to the collection of defunct objects orbiting the Earth. Examples of debris include non-operational satellites, rocket bodies, and fragments generated from explosions, collisions, or faulty payload assembly.

Loading next visibility...
Identifier
35414, 2001-055F
Orbit
LEO
Last TLE update
1 day ago
Origin
Manufacturer
Unknown
Mission
Spacecraft
Bus & Motor
Unknown
Mass
Unknown
Launch date (UTC)
2001-12-07 (23 years ago)
Launch vehicle
Unknown
Launch site
Air Force Western Test Range (AFWTR)
Object type
Payload
Rocket body
Debris
Shape & HBR
Unknown
Radar Cross Section
Small (<0.1 m²)

Expand to show TLE details & history

TLE from 1 day ago
0 JASON DEB
1 35414U 01055F   25126.83737017  .00004243  00000-0  11432-1 0  9995
2 35414  65.9995 302.5430 0055083 238.8754 235.3030 13.15013881 99327
Epoch: 2025-05-06T20:05Z
Definitive object data (Epoch: 2025-05-06T20:05:48.782Z)
Latitude
56.91159°
Longitude
-86.67343°
Altitude
1,236.39 km
Speed
7.231 km/s
True Right ascension
05h 18m 50s
True Declination
56° 45' 50"
Sunlit
Object was in daylight at TLE epoch
Visualization TLE readout
Latitude
34.81775°
Longitude
-63.98449°
Altitude
1,212.336 km
Speed
7.249 km/s
Apparent Right ascension
10h 16m 00s
Apparent Declination
3° 18' 48"
Sunlit
Object is in daylight
Visualization observer readout
Local Sidereal Time
04:01:09
Azimuth
85.076° E
Elevation
-0.717°
Doppler factor
1
Orbital elements
Apogee altitude
1,244.123 km
Perigee altitude
1,160.611 km
Semi-major axis
7,580.504 km
Eccentricity
0.0055083
Inclination
65.9995°
RAAN
302.543°
Arg. of periapsis
238.8754°
True anomaly
234.78607°
Mean anomaly
235.303°
Eccentric anomaly
235.04433°
Mean motion
3.28849 °/min
BSTAR
0.011432
Orbital period
109.47 mins
Loading maneuver chart data...
Loading SW <> Apogee altitude chart data...
Loading historical data...
Loading historical data...
Loading historical data...
Loading historical data...
Loading historical data...
Loading historical data...
Loading historical data...

JASON DEB Visibility forecast

Observer location: undefined°, undefined°

Span
Click to sort rows by Start time (UTC) header in descending order
Start Az.
Max El. time (UTC)
Max El. Az.
Max El.
End time (UTC)
End Az.
14 mins2025-05-07 21:36:59.106Z338.134° N2025-05-07 21:43:59.106Z47.509° ENE37.745°2025-05-07 21:50:59.106Z126.617° SE
11 mins2025-05-07 23:31:59.106Z304.621° NW2025-05-07 23:36:59.106Z248.255° W29.551°2025-05-07 23:42:59.106Z191.323° SSW
11 mins2025-05-08 11:46:59.106Z153.795° SSE2025-05-08 11:51:59.106Z106.277° ESE24.542°2025-05-08 11:57:59.106Z53.12° ENE
13 mins2025-05-08 13:37:59.106Z225.049° WSW2025-05-08 13:43:59.106Z290.658° WNW41.786°2025-05-08 13:50:59.106Z23.53° NE
8 mins2025-05-08 15:34:59.106Z293.957° NW2025-05-08 15:38:59.106Z328.52° NNW16.951°2025-05-08 15:42:59.106Z2.273° NNE
5 mins2025-05-08 19:30:59.106Z12.375° NNE2025-05-08 19:32:59.106Z29.393° NE13.772°2025-05-08 19:35:59.106Z53.922° ENE
|